SHIJIAN 6 02B (SJ-6 02B)

Satellite information

Favourite Embed

Satellite Type and Status

PAYLOADIN ORBIT

Key statistics

Satellite SHIJIAN 6 02B (SJ-6 02B) at a glance.

Uptime

6992

Days in orbit

Revolutions

≈ 15.0

Per day

Orbit

SSO

Sun Synchronous Orbit

Inclination

97.7

Latest

Satellite identification and parameters

Extended collection of information and parameters for SHIJIAN 6 02B (SJ-6 02B).

Object identification

Identified? True

Debris? False

Object name: SHIJIAN 6 02B (SJ-6 02B)

International designator: 2006-046B

Object number (NORAD): 29506

Object ID (CCSDS): 29506

Country: PEOPLES REPUBLIC OF CHINA (PRC)

Current information (Y/N): Y

RCS size: LARGE

Orbital parameters

Period: 95.966 minutes

Inclination: 97.6888 deg

SMA: 6943.372 km

Apoapsis: 574.962 km

Periapsis: 555.511 km

RAAN: 13.1977 deg

Eccentricy: 0.00140067

Argument of periapsis: 334.9527 deg

Mean anomaly: 25.1016 deg

Mean motion: 15.00538436 rev/day

Mean motion (dot): 0.00002747 rev/day2

B* drag term: 0.00022217192 1/REarth

Two-line elements (TLE)

Creation date: Dec. 14, 2025, 3:07 a.m.

Reference frame: TEME

Reference center: EARTH

Epoch: Dec. 13, 2025, 2:54 p.m. UTC

TLE line 0: 0 SHIJIAN 6 02B (SJ-6 02B)

TLE line 1: 1 29506U 06046B 25347.62147278 .00002747 00000-0 22217-3 0 9993

TLE line 2: 2 29506 97.6888 13.1977 0014007 334.9527 25.1016 15.00538436 42908

Live tracking on map

Real-time ground track for satellite SHIJIAN 6 02B (SJ-6 02B).

In-orbit conjunctions

There are no conjunctions computed for SHIJIAN 6 02B (SJ-6 02B), at the moment. Check back to stay up to date, as we update our databases every day.

Go to all conjunctions

Associated space launch

It was announced that the two satellites had a design life of at least two years, and would be used to probe the space environment, radiation and its effects, record space physical environment parameters, and conduct other related space experiments.

SHIJIAN 6 02B (SJ-6 02B) was lifted into orbit during the mission ‘Long March 4B | Shi Jian 6C & 6D’, on board a Long March 4B space rocket.

The launch took place on Oct. 23, 2006, 11:34 p.m. from Launch Complex 7.

For more information about the launch, click the button.

Launch to space Long March 4B | Shi Jian 6C & 6D
Long March 4B | Shi Jian 6C & 6D

Agency: N/A

Status: Launch Successful

Launch date: Oct. 23, 2006, 11:34 p.m. UTC

Rocket: Long March 4B

Launch pad: Launch Complex 7

Location: Taiyuan Satellite Launch Center, People's Republic of China

...

Latest news about this satellite

There are no fresh news available about this satellite. Check back as we update our databases every day.


Newsletter sign-up

Weekly statistics, charts and insights to help you stay on top of the space industry.